When you browse on this site, cookies collect data to enhance your experience and personalize the content and advertising you see.
Visit our Privacy Policy to learn more. By continuing to use the site, you agree to this use of cookies and data.
  • In Sweden
  • List of Countries
  • For 7 days
  • Water Temperature
  • Satellite Maps
  • Weather Map
  • Weather Widgets
  • user-avatar
    Login

    Hourly Weather Staryy Shustruy

    Today, 22 May, Wednesday

    Time Temperature Precipitation Wind Pressure Humidity
    00:00 +12°C° 0 mm 3 mps 745 mmHg 61%
    01:00 +12°C° 0 mm 3 mps 745 mmHg 70%
    02:00 +12°C° 0 mm 3 mps 745 mmHg 79%
    03:00 +12°C° 0 mm 2 mps 744 mmHg 85%
    04:00 +12°C° 0 mm 3 mps 744 mmHg 84%
    05:00 +13°C° 0 mm 3 mps 744 mmHg 83%
    06:00 +13°C° 0 mm 4 mps 744 mmHg 81%
    07:00 +15°C° 0 mm 4 mps 743 mmHg 77%
    08:00 +18°C° 0 mm 4 mps 743 mmHg 72%
    09:00 +20°C° 0 mm 4 mps 743 mmHg 67%
    10:00 +20°C° 1.2 mm 4 mps 743 mmHg 65%
    11:00 +21°C° 1.2 mm 5 mps 742 mmHg 63%
    12:00 +21°C° 1.2 mm 5 mps 742 mmHg 61%
    13:00 +22°C° 0.3 mm 5 mps 742 mmHg 59%
    14:00 +22°C° 0.3 mm 5 mps 741 mmHg 56%
    15:00 +23°C° 0.3 mm 5 mps 741 mmHg 54%
    16:00 +22°C° 0.4 mm 5 mps 741 mmHg 60%
    17:00 +21°C° 0.4 mm 4 mps 741 mmHg 66%
    18:00 +20°C° 0.4 mm 4 mps 740 mmHg 72%
    19:00 +19°C° 0.1 mm 4 mps 740 mmHg 77%
    20:00 +17°C° 0.1 mm 4 mps 740 mmHg 82%
    21:00 +16°C° 0.1 mm 3 mps 740 mmHg 87%
    22:00 +14°C° 0.1 mm 4 mps 740 mmHg 87%
    23:00 +14°C° 0.1 mm 4 mps 740 mmHg 87%

    Tomorrow, 23 May, Thursday

    Time Temperature Precipitation Wind Pressure Humidity
    00:00 +14°C° 0.1 mm 4 mps 740 mmHg 87%
    01:00 +13°C° 0 mm 4 mps 739 mmHg 85%
    02:00 +13°C° 0 mm 4 mps 739 mmHg 83%
    03:00 +12°C° 0 mm 4 mps 739 mmHg 82%
    04:00 +12°C° 0 mm 4 mps 739 mmHg 81%
    05:00 +12°C° 0 mm 4 mps 738 mmHg 80%
    06:00 +13°C° 0 mm 4 mps 738 mmHg 79%
    07:00 +14°C° 0 mm 4 mps 738 mmHg 74%
    08:00 +16°C° 0 mm 5 mps 737 mmHg 69%
    09:00 +19°C° 0 mm 5 mps 737 mmHg 65%
    10:00 +20°C° 0 mm 5 mps 737 mmHg 61%
    11:00 +21°C° 0 mm 5 mps 737 mmHg 58%
    12:00 +22°C° 0 mm 5 mps 736 mmHg 55%
    13:00 +22°C° 0 mm 5 mps 736 mmHg 55%
    14:00 +22°C° 0 mm 5 mps 735 mmHg 56%
    15:00 +23°C° 0 mm 5 mps 735 mmHg 57%
    16:00 +22°C° 0.2 mm 4 mps 735 mmHg 62%
    17:00 +22°C° 0.2 mm 3 mps 735 mmHg 67%
    18:00 +21°C° 0.2 mm 3 mps 734 mmHg 72%
    19:00 +20°C° 0.2 mm 3 mps 734 mmHg 76%
    20:00 +18°C° 0.2 mm 2 mps 734 mmHg 81%
    21:00 +17°C° 0.2 mm 2 mps 734 mmHg 86%
    22:00 +16°C° 0.2 mm 2 mps 734 mmHg 88%
    23:00 +16°C° 0.2 mm 2 mps 734 mmHg 90%

    Day after tomorrow, 24 May, Friday

    Time Temperature Precipitation Wind Pressure Humidity
    00:00 +15°C° 0.2 mm 2 mps 734 mmHg 92%
    01:00 +15°C° 0 mm 2 mps 735 mmHg 93%
    02:00 +14°C° 0 mm 2 mps 735 mmHg 94%
    03:00 +14°C° 0 mm 2 mps 735 mmHg 95%
    04:00 +13°C° 0 mm 3 mps 735 mmHg 95%
    05:00 +13°C° 0 mm 4 mps 736 mmHg 94%
    06:00 +13°C° 0 mm 5 mps 736 mmHg 94%
    07:00 +13°C° 0 mm 5 mps 737 mmHg 92%
    08:00 +12°C° 0 mm 5 mps 737 mmHg 91%
    09:00 +12°C° 0 mm 5 mps 738 mmHg 89%
    10:00 +13°C° 0 mm 5 mps 738 mmHg 86%
    11:00 +13°C° 0 mm 5 mps 739 mmHg 82%
    12:00 +14°C° 0 mm 5 mps 739 mmHg 78%
    13:00 +15°C° 0 mm 5 mps 739 mmHg 73%
    14:00 +17°C° 0 mm 4 mps 740 mmHg 68%
    15:00 +18°C° 0 mm 4 mps 740 mmHg 63%
    16:00 +17°C° 0 mm 4 mps 740 mmHg 64%
    17:00 +17°C° 0 mm 4 mps 740 mmHg 65%
    18:00 +15°C° 0 mm 4 mps 740 mmHg 66%
    19:00 +14°C° 0 mm 4 mps 741 mmHg 68%
    20:00 +12°C° 0 mm 4 mps 741 mmHg 71%
    21:00 +10°C° 0 mm 4 mps 742 mmHg 73%
    22:00 +10°C° 0 mm 4 mps 742 mmHg 74%
    23:00 +8°C° 0 mm 4 mps 742 mmHg 74%

    25 May, Saturday

    Time Temperature Precipitation Wind Pressure Humidity
    00:00 +7°C° 0 mm 4 mps 742 mmHg 74%
    01:00 +7°C° 0 mm 4 mps 742 mmHg 76%
    02:00 +7°C° 0 mm 4 mps 742 mmHg 78%
    03:00 +7°C° 0 mm 4 mps 742 mmHg 79%
    04:00 +7°C° 0 mm 5 mps 742 mmHg 76%
    05:00 +8°C° 0 mm 5 mps 742 mmHg 73%
    06:00 +8°C° 0 mm 5 mps 743 mmHg 69%
    07:00 +10°C° 0 mm 6 mps 742 mmHg 68%
    08:00 +11°C° 0 mm 6 mps 742 mmHg 66%
    09:00 +14°C° 0 mm 6 mps 742 mmHg 65%
    10:00 +15°C° 0 mm 7 mps 742 mmHg 66%
    11:00 +15°C° 0 mm 7 mps 742 mmHg 68%
    12:00 +16°C° 0 mm 7 mps 742 mmHg 69%
    13:00 +17°C° 0 mm 7 mps 741 mmHg 69%
    14:00 +17°C° 0 mm 7 mps 741 mmHg 70%
    15:00 +18°C° 0 mm 7 mps 740 mmHg 70%
    16:00 +19°C° 0.1 mm 6 mps 740 mmHg 73%
    17:00 +19°C° 0.1 mm 6 mps 739 mmHg 76%
    18:00 +17°C° 0.1 mm 5 mps 739 mmHg 79%
    19:00 +17°C° 0 mm 5 mps 739 mmHg 80%
    20:00 +16°C° 0 mm 5 mps 739 mmHg 81%
    21:00 +15°C° 0 mm 6 mps 738 mmHg 83%
    22:00 +15°C° 0 mm 6 mps 738 mmHg 82%
    23:00 +14°C° 0 mm 6 mps 738 mmHg 80%

    26 May, Sunday

    Time Temperature Precipitation Wind Pressure Humidity
    00:00 +14°C° 0 mm 7 mps 737 mmHg 79%
    01:00 +14°C° 0.1 mm 6 mps 737 mmHg 82%
    02:00 +14°C° 0.1 mm 6 mps 737 mmHg 85%
    03:00 +13°C° 0.1 mm 6 mps 736 mmHg 88%
    04:00 +14°C° 0.1 mm 6 mps 736 mmHg 90%
    05:00 +14°C° 0.1 mm 5 mps 736 mmHg 92%
    06:00 +14°C° 0.1 mm 5 mps 735 mmHg 94%
    07:00 +14°C° 0.4 mm 4 mps 735 mmHg 93%
    08:00 +14°C° 0.4 mm 4 mps 735 mmHg 93%
    09:00 +14°C° 0.4 mm 3 mps 735 mmHg 92%
    10:00 +14°C° 0.3 mm 3 mps 735 mmHg 93%
    11:00 +13°C° 0.3 mm 3 mps 734 mmHg 93%
    12:00 +14°C° 0.3 mm 2 mps 734 mmHg 94%
    13:00 +16°C° 0 mm 3 mps 734 mmHg 87%
    14:00 +18°C° 0 mm 3 mps 734 mmHg 81%
    15:00 +20°C° 0 mm 4 mps 734 mmHg 74%
    16:00 +19°C° 0.3 mm 4 mps 734 mmHg 78%
    17:00 +19°C° 0.3 mm 3 mps 734 mmHg 81%
    18:00 +19°C° 0.3 mm 3 mps 734 mmHg 84%
    19:00 +17°C° 0 mm 3 mps 734 mmHg 87%
    20:00 +16°C° 0 mm 3 mps 734 mmHg 90%
    21:00 +14°C° 0 mm 3 mps 734 mmHg 93%
    22:00 +14°C° 0 mm 3 mps 734 mmHg 94%
    23:00 +14°C° 0 mm 3 mps 734 mmHg 95%

    27 May, Monday

    Time Temperature Precipitation Wind Pressure Humidity
    00:00 +13°C° 0 mm 3 mps 734 mmHg 95%
    01:00 +13°C° 0 mm 3 mps 734 mmHg 96%
    02:00 +13°C° 0 mm 3 mps 734 mmHg 96%
    03:00 +13°C° 0 mm 3 mps 734 mmHg 96%
    04:00 +13°C° 0 mm 3 mps 735 mmHg 94%
    05:00 +13°C° 0 mm 4 mps 735 mmHg 92%
    06:00 +14°C° 0 mm 4 mps 736 mmHg 90%
    07:00 +15°C° 0 mm 4 mps 736 mmHg 83%
    08:00 +16°C° 0 mm 5 mps 736 mmHg 76%
    09:00 +19°C° 0 mm 5 mps 737 mmHg 68%
    10:00 +20°C° 0 mm 6 mps 737 mmHg 65%
    11:00 +20°C° 0 mm 6 mps 737 mmHg 62%
    12:00 +21°C° 0 mm 7 mps 737 mmHg 60%
    13:00 +20°C° 0.9 mm 7 mps 737 mmHg 69%
    14:00 +18°C° 0.9 mm 7 mps 737 mmHg 78%
    15:00 +16°C° 0.9 mm 8 mps 737 mmHg 87%
    16:00 +16°C° 0.2 mm 7 mps 737 mmHg 84%
    17:00 +17°C° 0.2 mm 7 mps 737 mmHg 80%
    18:00 +17°C° 0.2 mm 6 mps 738 mmHg 77%
    19:00 +15°C° 0 mm 6 mps 738 mmHg 78%
    20:00 +14°C° 0 mm 5 mps 739 mmHg 79%
    21:00 +12°C° 0 mm 4 mps 739 mmHg 80%
    22:00 +12°C° 0 mm 4 mps 740 mmHg 81%
    23:00 +11°C° 0 mm 4 mps 740 mmHg 82%
    Show more